Location: Washington
(38.8950°N, 77.0370°W)
Time: 05:22:37
(UTC-05:00)

Amateur Radio Satellites - All Passes

Search period start: 24 February 2017 04:52
Search period end: 25 February 2017 04:52
Location: Washington, 38.8950°N, 77.0370°W

Satellite Date Start Highest point End Downlink Frequencies (MHz)
Time Altitude Azimuth
ITAMSAT 1 24 Feb 04:52:52 04:56:15 18° 297° (WNW) 04:59:38 435.822/435.867
M-CUBED/EXP-1 PRIME 24 Feb 05:00:43 05:03:38 28° 257° (WSW) 05:06:29 437.505
KKS-1 24 Feb 05:00:51 05:03:27 15° 267° (W) 05:06:02 437.445
CUBESAT XI-V 24 Feb 05:13:03 05:16:34 21° 266° (W) 05:20:06 437.345
DOVE 4 24 Feb 05:27:16 05:31:06 24° 95° (E) 05:35:05 437.250
STARS 24 Feb 05:39:48 05:41:46 13° 268° (W) 05:43:45 437.465
CUTE-I 24 Feb 05:48:44 05:53:31 32° 97° (E) 05:58:15 437.470
AO-85 24 Feb 05:52:33 05:55:46 19° 312° (NW) 05:58:52 145.980
KAITUO 1B 24 Feb 06:05:13 06:08:48 40° 98° (E) 06:12:20 145.475/437.950
XW-2F 24 Feb 06:07:22 06:11:07 52° 100° (E) 06:14:47 145.980 - 146.000
XW-2D 24 Feb 06:11:03 06:14:51 63° 100° (E) 06:18:37 145.860 - 145.880
BEESAT 3 24 Feb 06:14:56 06:18:42 51° 118° (ESE) 06:22:33 437.485
XW-2B 24 Feb 06:16:02 06:19:52 71° 101° (E) 06:23:39 145.730 - 145.750
XW-2C 24 Feb 06:24:37 06:28:28 87° 286° (WNW) 06:32:16 145.795 - 145.815
STRAND 1 24 Feb 06:37:49 06:42:56 78° 74° (ENE) 06:48:06 437.568
CUTE 1.7 + AOD 2 24 Feb 06:38:38 06:40:32 13° 91° (E) 06:42:26 437.475
LilacSat-2 24 Feb 06:39:58 06:43:44 52° 286° (WNW) 06:47:27 437.200
NUDT-PHONESAT 24 Feb 06:41:51 06:45:36 63° 284° (WNW) 06:49:17 437.300
AO-7 24 Feb 06:43:00 06:45:06 11° 315° (NW) 06:47:13 .
XW-2A 24 Feb 06:45:01 06:47:39 20° 95° (E) 06:50:17 145.665 - 145.685
BEESAT 2 24 Feb 06:49:55 06:53:44 50° 116° (ESE) 06:57:36 435.950
HO-68 24 Feb 06:57:16 07:03:28 31° 96° (E) 07:09:38 435.675
SO-50 24 Feb 07:00:31 07:04:49 41° 53° (NE) 07:09:03 436.795
DOVE 4 24 Feb 07:04:33 07:08:47 34° 289° (WNW) 07:13:12 437.250
ISS 24 Feb 07:15:34 07:17:45 17° 130° (SE) 07:19:56 437.550
UWE-3 24 Feb 07:22:28 07:24:17 12° 90° (E) 07:26:04 435.000/436.395/437.385
CUTE-I 24 Feb 07:28:46 07:33:28 31° 292° (WNW) 07:38:08 437.470
AAUSAT CUBESAT 2 24 Feb 07:31:33 07:34:09 16° 93° (E) 07:36:43 437.432
SEEDS 24 Feb 07:36:59 07:40:54 39° 98° (E) 07:44:48 437.485
KAITUO 1B 24 Feb 07:40:41 07:42:26 13° 294° (WNW) 07:44:11 145.475/437.950
Tancredo 1 24 Feb 07:43:42 07:46:41 34° 135° (SE) 07:49:41 437.200
XW-2F 24 Feb 07:44:02 07:44:46 10° 295° (WNW) 07:45:28 145.980 - 146.000
ZACube-1 24 Feb 07:46:35 07:48:33 13° 90° (E) 07:50:31 437.345
O/OREOS (USA 219) 24 Feb 07:49:52 07:53:10 19° 58° (ENE) 07:56:27 437.305
BEESAT 3 24 Feb 07:54:17 07:56:38 15° 315° (NW) 07:58:59 437.485
CUTE 1.7 + AOD 2 24 Feb 08:12:34 08:16:38 48° 286° (WNW) 08:20:39 437.475
FO-29 24 Feb 08:16:01 08:19:50 15° 54° (NE) 08:23:45 435.910
CUBEBUG 2 24 Feb 08:16:01 08:20:49 77° 101° (E) 08:25:32 437.445
XW-2A 24 Feb 08:17:44 08:20:19 20° 290° (WNW) 08:22:53 145.665 - 145.685
STRAND 1 24 Feb 08:21:13 08:22:39 11° 271° (W) 08:24:06 437.568
UNISAT 6 24 Feb 08:23:42 08:26:39 17° 65° (ENE) 08:29:38 437.425
TIGRISAT 24 Feb 08:24:36 08:27:24 16° 65° (ENE) 08:30:15 435.000
BEESAT 2 24 Feb 08:29:20 08:31:48 16° 314° (NW) 08:34:17 435.950
AO-73 24 Feb 08:34:00 08:38:16 39° 97° (E) 08:42:26 145.935
PRISM 24 Feb 08:37:11 08:41:12 59° 75° (ENE) 08:45:13 437.425
SO-50 24 Feb 08:41:45 08:44:57 19° 250° (WSW) 08:48:08 436.795
Oscar 11 24 Feb 08:42:29 08:46:35 40° 98° (E) 08:50:38 .
HO-68 24 Feb 08:44:33 08:51:20 48° 293° (WNW) 08:58:06 435.675
ISS 24 Feb 08:50:44 08:53:56 47° 326° (NW) 08:57:09 437.550
UWE-3 24 Feb 08:56:29 09:01:08 63° 285° (WNW) 09:05:40 435.000/436.395/437.385
AAUSAT CUBESAT 2 24 Feb 09:05:57 09:09:43 36° 288° (WNW) 09:13:28 437.432
SEEDS 24 Feb 09:13:43 09:16:15 16° 294° (WNW) 09:18:47 437.485
DELFI C3 24 Feb 09:15:35 09:19:00 28° 97° (E) 09:22:23 145.870
Tancredo 1 24 Feb 09:20:11 09:23:00 26° 331° (NNW) 09:25:50 437.200
ZACube-1 24 Feb 09:20:41 09:25:11 57° 286° (WNW) 09:29:34 437.345
O/OREOS (USA 219) 24 Feb 09:28:26 09:32:45 42° 254° (WSW) 09:37:03 437.305
YUBILEINY 24 Feb 09:35:27 09:43:07 35° 85° (E) 09:50:47 435.215
CUBEBUG 2 24 Feb 09:55:12 09:56:44 11° 298° (WNW) 09:58:16 437.445
FO-29 24 Feb 09:56:25 10:03:23 75° 73° (ENE) 10:11:06 435.910
POLYITAN 1 24 Feb 09:57:13 09:59:33 15° 65° (ENE) 10:01:54 437.675
NANOSAT C BR1 24 Feb 09:58:14 10:00:19 14° 65° (ENE) 10:02:24 145.865
UNISAT 6 24 Feb 09:58:42 10:02:58 44° 262° (W) 10:07:21 437.425
TIGRISAT 24 Feb 09:59:22 10:03:40 46° 261° (W) 10:08:05 435.000
QB50P2 24 Feb 09:59:43 10:02:25 17° 66° (ENE) 10:05:08 145.880/145.840
AO-73 24 Feb 10:10:58 10:14:11 19° 293° (WNW) 10:17:21 145.935
Oscar 11 24 Feb 10:19:36 10:22:22 17° 294° (WNW) 10:25:08 .
ISS 24 Feb 10:29:29 10:31:02 13° 344° (NNW) 10:32:36 437.550
ESTCUBE 1 24 Feb 10:30:32 10:32:48 14° 92° (E) 10:35:02 437.505/2401.250
AIST 2D 24 Feb 10:34:33 10:38:01 59° 76° (ENE) 10:41:34 435.315
DELFI C3 24 Feb 10:50:47 10:53:36 19° 292° (WNW) 10:56:25 145.870
DUCHIFAT 1 24 Feb 11:04:14 11:08:24 69° 75° (ENE) 11:12:36 145.980
EO-79 24 Feb 11:13:33 11:17:45 76° 258° (WSW) 11:22:01 145.935-145.965
SPROUT 24 Feb 11:19:22 11:20:49 11° 91° (E) 11:22:17 437.525
POLYITAN 1 24 Feb 11:30:51 11:34:55 46° 261° (W) 11:39:03 437.675
YUBILEINY 24 Feb 11:31:09 11:39:35 49° 284° (WNW) 11:48:03 435.215
NANOSAT C BR1 24 Feb 11:31:29 11:35:34 50° 260° (W) 11:39:42 145.865
QB50P2 24 Feb 11:33:54 11:37:52 39° 262° (W) 11:41:53 145.880/145.840
FO-29 24 Feb 11:44:13 11:49:10 20° 272° (W) 11:54:26 435.910
ESTCUBE 1 24 Feb 12:05:32 12:09:52 51° 287° (WNW) 12:14:12 437.505/2401.250
BUGSAT 1 24 Feb 12:06:24 12:10:24 66° 259° (WSW) 12:14:29 437.445
Oscar 19 24 Feb 12:18:40 12:23:34 45° 71° (ENE) 12:28:27 437.125/150
50 SAT 24 Feb 12:28:51 12:32:19 67° 101° (E) 12:35:45 437.505
DX 1 24 Feb 12:31:31 12:35:37 40° 99° (E) 12:39:43 434.975-435.025
VELOX 1 24 Feb 12:35:53 12:40:18 74° 284° (WNW) 12:44:42 145.980
Tancredo 1 24 Feb 12:36:58 12:37:41 11° 11° (NNE) 12:38:24 437.200
AO-85 24 Feb 12:43:29 12:46:46 25° 51° (NE) 12:50:04 145.980
UKube-1 24 Feb 12:45:59 12:50:05 41° 99° (E) 12:54:10 .
SPROUT 24 Feb 12:52:50 12:57:03 56° 286° (WNW) 13:01:16 437.525
Gurwin Techsat 1B 24 Feb 12:54:03 12:59:12 54° 72° (ENE) 13:04:23 435.225
ISS 24 Feb 13:43:38 13:46:11 20° 25° (NNE) 13:48:44 437.550
AO-7 24 Feb 13:51:27 13:59:07 42° 62° (ENE) 14:06:47 .
ITUPSAT 1 24 Feb 13:59:02 14:02:11 17° 93° (E) 14:05:21 437.325
Oscar 19 24 Feb 13:59:19 14:03:04 20° 267° (W) 14:06:48 437.125/150
BEESAT 24 Feb 14:06:00 14:09:37 21° 94° (E) 14:13:12 436.000
DX 1 24 Feb 14:08:37 14:11:28 17° 294° (WNW) 14:14:21 434.975-435.025
Tancredo 1 24 Feb 14:11:50 14:14:47 31° 31° (NNE) 14:17:42 437.200
UKube-1 24 Feb 14:23:01 14:25:46 17° 295° (WNW) 14:28:30 .
AO-85 24 Feb 14:23:49 14:27:04 25° 246° (WSW) 14:30:22 145.980
ITAMSAT 1 24 Feb 14:28:43 14:33:54 78° 74° (ENE) 14:39:09 435.822/435.867
BEESAT 3 24 Feb 14:33:14 14:36:26 22° 49° (NE) 14:39:36 437.485
Gurwin Techsat 1B 24 Feb 14:35:59 14:39:28 17° 268° (W) 14:42:57 435.225
MOZHAYETS 4 24 Feb 14:37:05 14:39:49 15° 92° (E) 14:42:31
PCSat 24 Feb 14:47:50 14:48:36 10° 101° (ESE) 14:49:23 145.827
BEESAT 2 24 Feb 15:09:05 15:12:19 22° 49° (NE) 15:15:32 435.950
ISS 24 Feb 15:19:38 15:22:52 56° 223° (SW) 15:26:05 437.550
ITUPSAT 1 24 Feb 15:35:38 15:40:14 46° 288° (WNW) 15:44:46 437.325
BEESAT 24 Feb 15:43:04 15:47:29 38° 290° (WNW) 15:51:52 436.000
AO-7 24 Feb 15:43:56 15:51:46 43° 260° (W) 15:59:39 .
Tancredo 1 24 Feb 15:48:15 15:50:59 25° 227° (SW) 15:53:41 437.200
STARS 24 Feb 15:54:30 15:55:02 10° 90° (E) 15:55:34 437.465
BEESAT 3 24 Feb 16:10:29 16:14:05 32° 246° (WSW) 16:17:38 437.485
ITAMSAT 1 24 Feb 16:12:19 16:13:55 11° 270° (W) 16:15:32 435.822/435.867
MOZHAYETS 4 24 Feb 16:12:47 16:17:13 47° 287° (WNW) 16:21:35
PCSat 24 Feb 16:25:43 16:31:08 89° 137° (SE) 16:36:36 145.827
RS-15 24 Feb 16:26:18 16:36:57 41° 106° (ESE) 16:47:56 29.354- 29.394
DOVE 4 24 Feb 16:32:48 16:35:36 18° 67° (ENE) 16:38:23 437.250
M-CUBED/EXP-1 PRIME 24 Feb 16:39:59 16:42:12 15° 100° (E) 16:44:30 437.505
KAITUO 1B 24 Feb 16:44:56 16:47:26 17° 68° (ENE) 16:49:55 145.475/437.950
BEESAT 2 24 Feb 16:46:30 16:50:08 32° 246° (WSW) 16:53:45 435.950
XW-2F 24 Feb 16:47:33 16:50:30 21° 69° (ENE) 16:53:28 145.980 - 146.000
KKS-1 24 Feb 16:50:37 16:55:06 75° 284° (WNW) 16:59:33 437.445
XW-2D 24 Feb 16:51:20 16:54:30 25° 71° (ENE) 16:57:42 145.860 - 145.880
XW-2B 24 Feb 16:56:13 16:59:31 28° 71° (ENE) 17:02:50 145.730 - 145.750
XW-2C 24 Feb 17:04:33 17:08:04 35° 72° (ENE) 17:11:37 145.795 - 145.815
CUTE-I 24 Feb 17:09:11 17:14:15 46° 71° (ENE) 17:19:20 437.470
CUBESAT XI-V 24 Feb 17:09:19 17:13:55 77° 284° (WNW) 17:18:29 437.345
NUDT-PHONESAT 24 Feb 17:19:46 17:23:21 44° 74° (ENE) 17:26:58 437.300
LilacSat-2 24 Feb 17:20:03 17:23:51 59° 75° (ENE) 17:27:42 437.200
NO-84 24 Feb 17:23:56 17:27:07 66° 317° (NW) 17:30:38 435.350 FM
HO-68 24 Feb 17:25:52 17:30:59 22° 58° (ENE) 17:36:07 435.675
STARS 24 Feb 17:27:22 17:31:47 67° 286° (WNW) 17:36:10 437.465
DOVE 4 24 Feb 18:09:18 18:13:03 33° 263° (W) 18:16:50 437.250
PCSat 24 Feb 18:12:13 18:15:17 15° 316° (NW) 18:18:23 145.827
M-CUBED/EXP-1 PRIME 24 Feb 18:13:12 18:16:43 39° 291° (WNW) 18:20:30 437.505
KAITUO 1B 24 Feb 18:17:49 18:21:12 30° 263° (W) 18:24:37 145.475/437.950
XW-2F 24 Feb 18:21:23 18:24:31 24° 265° (W) 18:27:40 145.980 - 146.000
XW-2D 24 Feb 18:25:45 18:28:39 20° 266° (W) 18:31:34 145.860 - 145.880
SEEDS 24 Feb 18:27:35 18:31:01 24° 69° (ENE) 18:34:26 437.485
XW-2B 24 Feb 18:31:00 18:33:42 18° 266° (W) 18:36:26 145.730 - 145.750
RS-15 24 Feb 18:37:07 18:48:54 61° 308° (NW) 19:01:10 29.354- 29.394
XW-2C 24 Feb 18:40:15 18:42:24 14° 268° (W) 18:44:33 145.795 - 145.815
XW-2A 24 Feb 18:46:52 18:50:15 76° 260° (W) 18:53:40 145.665 - 145.685
STRAND 1 24 Feb 18:50:01 18:54:29 29° 96° (E) 18:58:55 437.568
CUTE-I 24 Feb 18:50:31 18:54:29 21° 267° (W) 18:58:28 437.470
NUDT-PHONESAT 24 Feb 18:56:25 18:57:30 11° 269° (W) 18:58:36 437.300
CUTE 1.7 + AOD 2 24 Feb 19:03:14 19:07:30 84° 255° (WSW) 19:11:49 437.475
NO-84 24 Feb 19:03:52 19:05:30 13° 338° (NNW) 19:07:10 435.350 FM
HO-68 24 Feb 19:10:49 19:17:59 74° 256° (WSW) 19:25:10 435.675
CUBEBUG 2 24 Feb 19:12:32 19:16:49 52° 73° (ENE) 19:21:15 437.445
AO-73 24 Feb 19:28:13 19:31:55 26° 69° (ENE) 19:35:41 145.935
Oscar 11 24 Feb 19:36:06 19:39:46 27° 70° (ENE) 19:43:27 .
YUBILEINY 24 Feb 19:48:11 19:52:52 15° 61° (ENE) 19:57:31 435.215
UWE-3 24 Feb 19:51:34 19:55:59 88° 68° (ENE) 20:00:34 435.000/436.395/437.385
AAUSAT CUBESAT 2 24 Feb 19:53:59 19:58:08 68° 259° (W) 20:02:18 437.432
DELFI C3 24 Feb 20:00:58 20:03:12 15° 67° (ENE) 20:05:25 145.870
SEEDS 24 Feb 20:03:01 20:06:35 26° 264° (W) 20:10:09 437.485
ZACube-1 24 Feb 20:14:28 20:18:54 87° 258° (WSW) 20:23:27 437.345
STRAND 1 24 Feb 20:29:05 20:33:36 32° 292° (WNW) 20:38:06 437.568
CUBEBUG 2 24 Feb 20:51:38 20:53:46 13° 270° (W) 20:55:56 437.445
RS-15 24 Feb 20:55:29 21:04:48 24° 338° (NNW) 21:14:15 29.354- 29.394
AO-73 24 Feb 21:04:17 21:08:02 27° 265° (W) 21:11:53 145.935
HO-68 24 Feb 21:05:38 21:06:46 10° 273° (W) 21:07:55 435.675
FO-29 24 Feb 21:11:42 21:14:14 12° 83° (E) 21:16:41 435.910
Oscar 11 24 Feb 21:12:17 21:15:50 24° 265° (W) 21:19:25 .
SO-50 24 Feb 21:14:38 21:17:49 18° 110° (ESE) 21:20:58 436.795
ESTCUBE 1 24 Feb 21:29:52 21:31:32 12° 63° (ENE) 21:33:13 437.505/2401.250
DELFI C3 24 Feb 21:33:56 21:37:39 39° 262° (W) 21:41:23 145.870
YUBILEINY 24 Feb 21:42:23 21:51:10 80° 83° (E) 21:59:51 435.215
UNISAT 6 24 Feb 21:51:21 21:55:49 42° 98° (E) 22:00:14 437.425
TIGRISAT 24 Feb 21:51:55 21:56:21 40° 98° (E) 22:00:42 435.000
PRISM 24 Feb 21:54:41 21:58:45 68° 285° (WNW) 22:02:47 437.425
O/OREOS (USA 219) 24 Feb 22:00:52 22:04:29 25° 102° (ESE) 22:08:08 437.305
NO-84 24 Feb 22:22:13 22:24:04 13° 22° (NNE) 22:25:57 435.350 FM
DUCHIFAT 1 24 Feb 22:51:28 22:53:07 12° 91° (E) 22:54:46 145.980
FO-29 24 Feb 22:52:51 23:00:33 76° 102° (ESE) 23:07:26 435.910
SO-50 24 Feb 22:53:23 22:57:55 48° 306° (NW) 23:02:25 436.795
EO-79 24 Feb 23:00:14 23:03:18 19° 94° (E) 23:06:21 145.935-145.965
50 SAT 24 Feb 23:02:15 23:04:55 21° 70° (ENE) 23:07:36 437.505
ESTCUBE 1 24 Feb 23:03:16 23:07:46 67° 259° (W) 23:12:16 437.505/2401.250
RS-15 24 Feb 23:14:55 23:23:41 21° 15° (NNE) 23:32:20 29.354- 29.394
POLYITAN 1 24 Feb 23:16:58 23:20:46 29° 97° (E) 23:24:30 437.675
NANOSAT C BR1 24 Feb 23:17:11 23:20:50 27° 96° (E) 23:24:27 145.865
QB50P2 24 Feb 23:19:48 23:23:44 34° 97° (E) 23:27:37 145.880/145.840
DX 1 24 Feb 23:25:53 23:29:39 30° 70° (ENE) 23:33:26 434.975-435.025
JUGNU 24 Feb 23:27:21 23:28:54 11° 182° (S) 23:30:27 437.505
UNISAT 6 24 Feb 23:28:53 23:32:11 19° 294° (WNW) 23:35:27 437.425
TIGRISAT 24 Feb 23:29:18 23:32:43 20° 294° (WNW) 23:36:06 435.000
VELOX 1 24 Feb 23:31:31 23:35:53 82° 76° (ENE) 23:40:17 145.980
AIST 2D 24 Feb 23:34:00 23:37:35 89° 282° (WNW) 23:41:07 435.315
UKube-1 24 Feb 23:39:18 23:43:02 30° 70° (ENE) 23:46:48 .
O/OREOS (USA 219) 24 Feb 23:39:52 23:43:45 29° 299° (WNW) 23:47:40 437.305
YUBILEINY 24 Feb 23:41:12 23:46:49 19° 281° (W) 23:52:26 435.215
SPROUT 24 Feb 23:44:26 23:48:41 90° 305° (NW) 23:52:59 437.525
BUGSAT 1 24 Feb 23:49:56 23:53:01 19° 94° (E) 23:56:07 437.445
NO-84 24 Feb 23:58:32 00:02:34 48° 40° (NE) 00:06:48 435.350 FM
DUCHIFAT 1 25 Feb 00:24:55 00:29:05 53° 286° (WNW) 00:33:13 145.980
SRMSAT 25 Feb 00:26:21 00:27:11 10° 173° (S) 00:28:01 437.500
Oscar 19 25 Feb 00:32:29 00:35:48 17° 92° (E) 00:39:06 437.125/150
EO-79 25 Feb 00:35:15 00:39:07 34° 289° (WNW) 00:42:59 145.935-145.965
50 SAT 25 Feb 00:35:19 00:37:57 20° 265° (W) 00:40:35 437.505
FO-29 25 Feb 00:39:08 00:44:36 22° 302° (WNW) 00:49:47 435.910
NANOSAT C BR1 25 Feb 00:52:59 00:56:25 24° 291° (WNW) 00:59:51 145.865
POLYITAN 1 25 Feb 00:53:01 00:56:22 22° 292° (WNW) 00:59:42 437.675
QB50P2 25 Feb 00:56:11 00:59:15 20° 293° (WNW) 01:02:20 145.880/145.840
DX 1 25 Feb 01:02:29 01:05:49 22° 265° (W) 01:09:12 434.975-435.025
ITUPSAT 1 25 Feb 01:04:43 01:08:03 19° 65° (ENE) 01:11:22 437.325
BEESAT 25 Feb 01:11:18 01:14:57 22° 66° (ENE) 01:18:37 436.000
Gurwin Techsat 1B 25 Feb 01:12:07 01:16:20 24° 94° (E) 01:20:32 435.225
PCSat 25 Feb 01:14:53 01:20:13 54° 58° (ENE) 01:25:31 145.827
UKube-1 25 Feb 01:15:45 01:19:04 22° 265° (W) 01:22:23 .
BUGSAT 1 25 Feb 01:24:37 01:28:25 33° 289° (WNW) 01:32:14 437.445
RS-15 25 Feb 01:28:36 01:40:27 48° 46° (NE) 01:51:49 29.354- 29.394
NO-84 25 Feb 01:36:41 01:40:06 23° 234° (SW) 01:43:37 435.350 FM
MOZHAYETS 4 25 Feb 01:38:23 01:40:46 14° 64° (ENE) 01:43:10
AO-7 25 Feb 01:58:15 02:00:25 11° 88° (E) 02:02:35 .
Oscar 19 25 Feb 02:10:26 02:15:24 52° 288° (WNW) 02:20:21 437.125/150
SRMSAT 25 Feb 02:13:38 02:15:25 11° 183° (S) 02:17:11 437.500
ITUPSAT 1 25 Feb 02:40:54 02:45:30 45° 261° (W) 02:50:08 437.325
ITAMSAT 1 25 Feb 02:43:14 02:47:49 30° 97° (E) 02:52:21 435.822/435.867
BEESAT 25 Feb 02:48:03 02:52:29 37° 262° (W) 02:56:56 436.000
Gurwin Techsat 1B 25 Feb 02:51:26 02:56:24 41° 290° (WNW) 03:01:20 435.225
AO-85 25 Feb 02:58:49 03:00:29 12° 109° (ESE) 03:02:07 145.980
PCSat 25 Feb 02:59:23 03:03:09 19° 255° (WSW) 03:06:54 145.827
MOZHAYETS 4 25 Feb 03:12:50 03:17:24 59° 260° (W) 03:22:00
M-CUBED/EXP-1 PRIME 25 Feb 03:26:21 03:27:42 12° 62° (ENE) 03:29:03 437.505
RS-15 25 Feb 03:41:26 03:53:09 55° 250° (WSW) 04:04:23 29.354- 29.394
AO-7 25 Feb 03:46:11 03:54:30 71° 105° (ESE) 04:02:44 .
KKS-1 25 Feb 03:47:03 03:51:27 85° 77° (ENE) 03:55:54 437.445
CUBESAT XI-V 25 Feb 04:10:52 04:15:33 88° 77° (ENE) 04:20:13 437.345
STARS 25 Feb 04:22:18 04:26:40 89° 269° (W) 04:31:04 437.465
ITAMSAT 1 25 Feb 04:22:37 04:27:13 32° 292° (WNW) 04:31:47 435.822/435.867
AO-85 25 Feb 04:35:53 04:40:27 66° 302° (WNW) 04:44:42 145.980
